Location: *
(38.9800°N, 16.0500°E)
Time: 07:06:02
(UTC+00:00)

IDEFIX/ARIANE 42P - Pass Details

Date: 07 April 2020
Orbit: 786 x 802 km, 98.3° (Epoch: 25 May)

Event Time Altitude Azimuth Distance (km) Brightness Sun altitude
Rises 03:24:39 0° 359° (N) 3,288 6.0 -13.2°
Reaches altitude 10° 03:27:22 10° 345° (NNW) 2,356 5.1 -12.7°
Maximum altitude 03:31:25 24° 294° (WNW) 1,605 3.8 -12.0°
Enters shadow 03:34:13 15° 253° (WSW) 1,998 4.0 -11.5°
